Flag for Faroe Islands Weather past 2 weeks in Tórshavn, Faroe Islands, Faroe Islands

Now
46 °F

Partly sunny.


Feels Like: 41 °F
Forecast: 46 / 53 °F
Wind: 12 mph from North

Location: Soervaag / Vagar

Current Time: Sep 1, 2015 at 9:31:31 PM

Latest Report: Sep 1, 2015 at 8:50 PM


Visibility: N/A

Pressure: 30.30 "Hg

Humidity: 66%

Dew point: 36 °F

Location of TórshavnLocation

Historic Weather in Tórshavn — Graph

°F

Tórshavn temperature yesterday

Maximum temperature yesterday: 52 °F (at 4:50 PM)
Minimum temperature yesterday: 45 °F (at 8:50 PM)
Average temperature yesterday: 48 °F

Past Weeks' High & Low Weather Summary

 TemperatureHumidityPressure
High68 °F (Aug 25, 9:50 AM)100% (Aug 18, 1:20 AM)30.30 "Hg (Aug 18, 1:20 AM)
Low43 °F (Sep 1, 2:20 AM)43% (Aug 25, 9:50 AM)29.15 "Hg (Aug 27, 5:20 AM)
Average53 °F89%29.76 "Hg
* Reported Aug 17 8:20 PM — Sep 1 8:20 PM, Tórshavn, Weather by CustomWeather, © 2015

Note: Actual official high and low records may vary slightly from our data, if they occured in-between our weather recording intervals... More about our weather records

Advertising

Tórshavn weather history for previous 24 hours

 ConditionsComfort  
Time TempWeatherWind HumidityBarometerVisibility
8:20 PM
Tue, Sep 1
46 °FOvercast.10 mph71%30.30 "HgN/A
7:50 PM46 °FOvercast.10 mph66%30.30 "HgN/A
7:20 PM46 °FOvercast.13 mph76%30.30 "HgN/A
6:50 PM46 °FPartly sunny.14 mph71%30.30 "HgN/A
6:20 PM48 °FOvercast.15 mph71%30.27 "HgN/A
5:50 PM48 °FOvercast.13 mph71%30.30 "HgN/A
5:20 PM48 °FOvercast.14 mph71%30.30 "HgN/A
4:50 PM48 °FPartly sunny.13 mph71%30.30 "HgN/A
4:20 PM48 °FOvercast.15 mph71%30.30 "HgN/A
3:50 PM48 °FOvercast.12 mph71%30.30 "HgN/A
3:20 PM48 °FPartly sunny.15 mph76%30.30 "HgN/A
2:50 PM48 °FOvercast.10 mph76%30.27 "HgN/A
2:20 PM48 °FOvercast.14 mph71%30.27 "HgN/A
1:50 PM48 °FPartly sunny.9 mph71%30.27 "HgN/A
1:20 PM48 °FPartly sunny.8 mph76%30.27 "HgN/A
12:50 PM48 °FOvercast.10 mph71%30.27 "HgN/A
12:20 PM48 °FPartly sunny.13 mph71%30.27 "HgN/A
11:50 AM48 °FPartly sunny.10 mph71%30.27 "HgN/A
11:20 AM48 °FPartly sunny.8 mph76%30.27 "HgN/A
10:50 AM46 °FPartly sunny.6 mph76%30.27 "HgN/A
10:20 AM46 °FOvercast.7 mph82%30.27 "HgN/A
9:50 AM46 °FOvercast.7 mph76%30.27 "HgN/A
9:20 AM46 °FOvercast.10 mph76%30.27 "HgN/A
8:50 AM46 °FOvercast.7 mph76%30.27 "HgN/A
8:20 AM46 °FOvercast.10 mph71%30.27 "HgN/A
7:50 AM45 °FPartly sunny.12 mph76%30.27 "HgN/A
7:20 AM45 °FOvercast.12 mph76%30.27 "HgN/A
6:50 AM45 °FOvercast.13 mph76%30.27 "HgN/A
6:20 AM45 °FOvercast.9 mph76%30.27 "HgN/A
5:50 AM45 °FOvercast.10 mph76%30.27 "HgN/A
4:20 AM45 °FPassing clouds.8 mph76%30.24 "HgN/A
3:50 AM45 °FQuite cool.6 mph76%30.24 "HgN/A
3:20 AM45 °FQuite cool.7 mph71%30.24 "HgN/A
2:50 AM45 °FQuite cool.9 mph71%30.24 "HgN/A
2:20 AM43 °FQuite cool.5 mph76%30.24 "HgN/A
1:50 AM45 °FQuite cool.9 mph71%30.24 "HgN/A
1:20 AM45 °FQuite cool.8 mph71%30.24 "HgN/A
12:50 AM45 °FQuite cool.12 mph71%30.24 "HgN/A
12:20 AM45 °FQuite cool.7 mph71%30.24 "HgN/A
11:50 PM
Mon, Aug 31
45 °FQuite cool.12 mph71%30.24 "HgN/A
11:20 PM45 °FQuite cool.10 mph71%30.24 "HgN/A
10:20 PM45 °FQuite cool.10 mph71%30.24 "HgN/A
9:50 PM45 °FPassing clouds.10 mph71%30.24 "HgN/A
9:20 PM45 °FPartly sunny.10 mph71%30.24 "HgN/A
Weather by CustomWeather, © 2015

See weather overviewHow to use our weather pages